Location: Marsån
(66.4167°N, 22.2833°E)
Time: 11:26:04
(UTC+00:00)

Cosmos 2084 - Pass Details

Date: 24 February 2024
Orbit: 491 x 655 km, 62.8° (Epoch: 15 April)

Event Time Altitude Azimuth Distance (km) Brightness Sun altitude
Rises 16:53:05 0° 262° (W) 2,621 9.0 -9.6°
Reaches altitude 10° 16:55:19 10° 257° (WSW) 1,719 7.4 -9.8°
Maximum altitude 16:59:01 49° 182° (S) 647 3.7 -10.2°
Enters shadow 17:02:03 14° 110° (ESE) 1,457 4.9 -10.5°
